一网星座-0384星 (ONEWEB-0384 )

导读

ONEWEB-0384是英国OneWeb星座一期低轨宽带通信卫星,于2021年10月14日发射入轨,运行在1200公里近地轨道。卫星重约147.5公斤,设计寿命5年,搭载Ku/Ka波段通信载荷,单星通信能力约7.5Gbps,采用弯管式架构,为全球提供低时延宽带互联网接入服务,是OneWeb一期全球覆盖网络的组成部分,寿命末期会主动离轨减少空间碎片。

基本信息
目录编号:
49310
目录名称:
ONEWEB-0384
国际标识:
2021-090AH
轨道中心:
EARTH
卫星名称:
一网星座-0384星
卫星全名:
一网星座-0384星 (ONEWEB-0384 )
卫星状态:
在轨 (已飞行1704 天)
发射日期:
2021-10-14 UTC
国别 :
英国 (GB)
星等 :
--
轨道信息
数据来源 国际轨道数据 AOE轨道数据
星历时间 2026-06-14T03:13:20+0800
16小时前
查看轨道信息
2026-06-11T05:00:00+0800
3天前
查看轨道信息
半长轴 7559.758km 7559.764km
偏心率 0.0001998 0.0002032
轨道倾角 87.919° 87.917°
近地点辐角 86.647° 62.587°
升交点赤经 275.153° 275.733°
平近点角 273.490° 72.965°
近地点 1180.11km 1180.09km
远地点 1183.132km 1183.164km
周期 109.024分钟 109.024分钟
每日圈数 13.208119 13.208102
详细信息
平衡模式:
三轴稳定
覆盖范围:
全球
运营商:
一网卫星公司
运营商所在国:
英国
制造商(研发单位):
一网卫星公司
制造商所在国:
英国
使用方式:
暂无
卫星简介
OneWeb卫星网络由648颗重约125公斤的微型卫星组成,运行在1200公里的轨道上。 每颗卫星都能够提供至少每秒8千兆位的吞吐量,以使用其高吞吐量的Ku频段有效载荷为家庭和移动平台提供互联网接入。该卫星仍在工作。
2D轨道图
3D轨道图
轨道高度分析图
轨道倾角分析图
轨道综合分析图
查看轨道综合分析图